[[{"header":{"parameterUnit":"m.s-1","parameterCategory":1,"la1":30.2991,"la2":30.254,"lo1":-89.0895,"lo2":-89.0444,"dy":0.0017,"dx":0.0017,"nx":28,"ny":28,"refTime":"2023-11-05T09:00:00:Z","depth":0,"parameterNumber":2,"parameterNumberName":"U-component_of_WINDS"},"data":[0,0,0,0,0,0,0,0,0,0,0,0,0,0,0,0,0,0,0,0,0,0,0,0,0,0,0,0,0,0,0,0,0,0,0,0,0,0,0,0,0,0,0,0,0,0,0,0,0,0,0,0,0,0,0,0,0,0,0.2008,0.2009,0,0.2096,0.2097,0.2098,0.2135,0.2135,0.2135,0.2135,0.2225,0.2227,0.223,0,0,0,0,0,0,0,0,0,0,0,0,0,0.187,0.1873,0.2008,0.2009,0.201,0.2096,0.2097,0.2098,0.2135,0.2135,0.2135,0.2134,0.2224,0.2227,0.223,0,0,0,0,0,0,0,0,0,0,0,0,0,0.1941,0.1873,0.2007,0.2039,0.2042,0.2096,0.2097,0.2099,0.2135,0.2135,0.2135,0.2134,0.2223,0.2227,0.223,0.2259,0,0,0.2242,0.2244,0,0,0,0,0,0,0,0,0.1937,0.1946,0.2033,0.2037,0.2041,0.2104,0.2082,0.2153,0.2135,0.21,0.2135,0.2134,0.2185,0.2192,0.2209,0.2263,0.2267,0.2242,0.2245,0.2246,0.2247,0,0,0,0,0,0,0,0.1932,0.1943,0.2043,0.2034,0.2039,0.2048,0.2058,0.2095,0.2143,0.2103,0.2106,0.2116,0.2187,0.2205,0.2211,0.2269,0.2242,0.2246,0.2248,0.225,0.2352,0.2352,0,0,0,0,0,0,0.1922,0.1938,0.204,0.2045,0.1987,0.2051,0.2062,0.2084,0.2142,0.2151,0.2116,0.2117,0.2199,0.2207,0.2215,0.2253,0.2246,0.225,0.2252,0.2351,0.2352,0.2352,0,0,0,0,0,0,0.1919,0.1931,0.2036,0.1993,0.2007,0.2053,0.2078,0.2086,0.2104,0.2152,0.2161,0.2126,0.2199,0.2209,0.2248,0.2256,0.2252,0.2255,0.2351,0.2351,0.2352,0.2328,0,0,0,0,0,0,0.1915,0.193,0.1941,0.1993,0.2009,0.2068,0.2079,0.2088,0.2111,0.2113,0.2164,0.2172,0.2199,0.2242,0.2252,0.2261,0.2258,0.235,0.2351,0.2352,0.2329,0.2328,0.2328,0,0,0,0,0,0.191,0.1931,0.1942,0.1954,0.2024,0.2069,0.2078,0.2109,0.2111,0.2123,0.2154,0.217,0.2254,0.2246,0.2257,0.2268,0.235,0.2351,0.2352,0.2329,0.2328,0.2328,0,0,0,0,0,0,0.1879,0.1938,0.1951,0.1989,0.2023,0.2075,0.2091,0.2107,0.2142,0.2143,0.218,0.2191,0.2227,0.2251,0.2241,0.2299,0.2303,0.2306,0.2282,0.2282,0.2281,0.2275,0.2261,0,0,0,0,0,0.1876,0.1908,0.1958,0.1986,0.2003,0.2044,0.2064,0.2085,0.2123,0.2137,0.2171,0.2206,0.2241,0.2263,0.2297,0.2332,0.2344,0.2345,0.2345,0.2344,0.2347,0.2368,0.2369,0.2355,0.2355,0.2355,0,0,0.1872,0.1908,0.1925,0.1981,0.201,0.2042,0.2056,0.2088,0.2112,0.2142,0.2181,0.2207,0.2249,0.2286,0.2305,0.2308,0.2353,0.2345,0.2345,0.2347,0.2369,0.237,0.2371,0.2356,0.2356,0.2356,0,0,0.1879,0.191,0.1937,0.1966,0.2011,0.2038,0.2044,0.2093,0.2112,0.2151,0.2175,0.2203,0.2261,0.229,0.2313,0.2331,0.2347,0.2341,0.2339,0.2359,0.236,0.2361,0.2368,0.237,0.2343,0.2343,0.2343,0,0.1868,0.1916,0.1949,0.1981,0.2005,0.2034,0.2062,0.2088,0.2141,0.2157,0.216,0.2234,0.2264,0.2309,0.2313,0.233,0.2339,0.2336,0.2357,0.2358,0.236,0.2367,0.2369,0.2342,0.2342,0.2342,0.2343,0,0.19,0.1933,0.195,0.2001,0.2026,0.2056,0.2093,0.2115,0.2134,0.2161,0.2201,0.2238,0.228,0.2293,0.2311,0.234,0.2341,0.235,0.2355,0.236,0.2367,0.237,0.2341,0.2341,0.2341,0.2342,0,0,0.189,0.1959,0.1965,0.1988,0.2039,0.2066,0.2096,0.2138,0.2156,0.2192,0.2218,0.2267,0.2276,0.2301,0.2323,0.2341,0.2353,0.2348,0.2349,0.2348,0.2388,0.2381,0.2383,0.2364,0.2365,0.2365,0.2384,0,0.1905,0.1962,0.1992,0.2036,0.2067,0.2095,0.2122,0.2156,0.2182,0.2212,0.224,0.2274,0.2283,0.2299,0.2317,0.2348,0.2362,0.2347,0.239,0.2391,0.2379,0.2387,0.238,0.2396,0.2387,0.2388,0.2388,0,0.193,0.1965,0.2012,0.206,0.2074,0.2097,0.2138,0.2166,0.2206,0.2223,0.2251,0.2273,0.2307,0.2309,0.2356,0.2345,0.2364,0.2382,0.2383,0.2389,0.239,0.2393,0.2402,0.2404,0.2393,0.2392,0.2392,0,0.1918,0.1978,0.2014,0.2033,0.2089,0.2105,0.2129,0.2168,0.2191,0.2227,0.2242,0.2281,0.2302,0.2332,0.2363,0.2362,0.2407,0.2412,0.2423,0.2422,0.2431,0.243,0.2443,0.2443,0.2443,0.2443,0.2443,0,0.1931,0.1959,0.2009,0.2031,0.2063,0.2098,0.2128,0.2155,0.2189,0.2217,0.2243,0.2269,0.2309,0.2339,0.2364,0.2399,0.2409,0.2424,0.243,0.2422,0.242,0.2435,0.2435,0.2444,0.2443,0.2443,0.2443,0,0.1924,0.1959,0.2,0.205,0.2063,0.2084,0.2127,0.215,0.2177,0.2211,0.2222,0.2264,0.2301,0.2336,0.2385,0.2402,0.2437,0.2445,0.2424,0.2427,0.2436,0.2435,0.246,0.2465,0.2461,0.2461,0.2461,0,0.193,0.1953,0.2005,0.2026,0.2049,0.2082,0.2106,0.2141,0.2165,0.2211,0.2228,0.2267,0.23,0.2358,0.2393,0.2431,0.244,0.2447,0.2446,0.2437,0.2441,0.2439,0.2442,0.2446,0.2446,0.2446,0.2446,0,0.1938,0.1954,0.1988,0.2027,0.2055,0.2088,0.2121,0.2136,0.2178,0.2203,0.2241,0.2267,0.2318,0.2356,0.2398,0.2423,0.2441,0.2445,0.245,0.2442,0.2428,0.2436,0.2423,0.2445,0.2445,0.2445,0.2445,0.2445,0.1938,0.1959,0.1999,0.2036,0.2065,0.2096,0.2119,0.2149,0.2182,0.2226,0.2245,0.2283,0.2322,0.2381,0.2405,0.2436,0.244,0.2447,0.2449,0.245,0.2448,0.2423,0.2444,0.2444,0.2444,0.2444,0.2444,0,0.1947,0.1975,0.2008,0.2054,0.2083,0.2098,0.2135,0.2158,0.2192,0.2227,0.2259,0.2303,0.2341,0.2379,0.2418,0.2436,0.2445,0.2445,0.2444,0.245,0.2442,0.2434,0.2437,0.2437,0.2437,0.2437,0.2437,0.2437,0.1955,0.1992,0.2013,0.2064,0.2091,0.2129,0.215,0.2178,0.2206,0.2254,0.2286,0.231,0.2347,0.2389,0.2424,0.2434,0.2448,0.2445,0.2458,0.245,0.245,0.2451,0.2443,0.2448,0.2448,0.2463,0.2463,0.2463]},{"header":{"parameterUnit":"m.s-1","parameterCategory":1,"la1":30.2991,"la2":30.254,"lo1":-89.0895,"lo2":-89.0444,"dy":0.0017,"dx":0.0017,"nx":28,"ny":28,"refTime":"2023-11-05T09:00:00:Z","depth":0,"parameterNumber":3,"parameterNumberName":"V-component_of_WINDS"},"data":[0,0,0,0,0,0,0,0,0,0,0,0,0,0,0,0,0,0,0,0,0,0,0,0,0,0,0,0,0,0,0,0,0,0,0,0,0,0,0,0,0,0,0,0,0,0,0,0,0,0,0,0,0,0,0,0,0,0,2.5831,2.583,0,2.5744,2.5743,2.5742,2.5661,2.566,2.5659,2.5658,2.5565,2.5564,2.5562,0,0,0,0,0,0,0,0,0,0,0,0,0,2.5924,2.5923,2.5831,2.583,2.5829,2.5744,2.5743,2.5742,2.5661,2.566,2.5659,2.5658,2.5566,2.5564,2.5562,0,0,0,0,0,0,0,0,0,0,0,0,0,2.5865,2.5922,2.5831,2.5779,2.5773,2.5744,2.5743,2.5741,2.5662,2.566,2.5659,2.5657,2.5566,2.5564,2.5562,2.5577,0,0,2.5554,2.5553,0,0,0,0,0,0,0,0,2.5868,2.5862,2.5787,2.5782,2.5776,2.5712,2.5741,2.5686,2.5662,2.5704,2.5658,2.5656,2.5615,2.5608,2.5595,2.5572,2.5568,2.5554,2.5553,2.5552,2.5551,0,0,0,0,0,0,0,2.5873,2.5865,2.5796,2.5786,2.5779,2.5758,2.5748,2.5731,2.5668,2.57,2.5694,2.5685,2.5611,2.5598,2.5592,2.5567,2.5554,2.5552,2.5551,2.555,2.5553,2.5554,0,0,0,0,0,0,2.5885,2.5869,2.5799,2.5794,2.582,2.5758,2.5747,2.5734,2.5669,2.5657,2.5686,2.5682,2.5602,2.5595,2.5589,2.5603,2.5552,2.555,2.5548,2.5551,2.5553,2.5555,0,0,0,0,0,0,2.5888,2.588,2.5803,2.583,2.5818,2.5758,2.5744,2.5733,2.5719,2.5658,2.5646,2.5684,2.5601,2.5592,2.5581,2.5599,2.5549,2.5546,2.555,2.5552,2.5554,2.5631,0,0,0,0,0,0,2.5891,2.5881,2.5887,2.5831,2.5817,2.5797,2.5745,2.5732,2.5716,2.5709,2.5653,2.5642,2.5599,2.5585,2.5579,2.5594,2.5545,2.5548,2.5551,2.5553,2.5627,2.5636,2.5644,0,0,0,0,0,2.5894,2.5911,2.5888,2.588,2.5824,2.5799,2.5791,2.5742,2.5718,2.5723,2.5684,2.5644,2.5598,2.5584,2.5576,2.5592,2.5546,2.555,2.5553,2.5623,2.5634,2.5643,0,0,0,0,0,0,2.597,2.5903,2.5876,2.5876,2.5844,2.5785,2.579,2.5755,2.5728,2.5723,2.5662,2.565,2.5646,2.5617,2.5604,2.5604,2.5567,2.5569,2.5623,2.5632,2.5641,2.5648,2.5543,0,0,0,0,0,2.5987,2.5973,2.5915,2.592,2.5906,2.5851,2.5838,2.5804,2.5767,2.5753,2.5713,2.5678,2.5656,2.5642,2.5618,2.5622,2.5609,2.5629,2.5637,2.5645,2.5647,2.5648,2.5656,2.5566,2.5566,2.5566,0,0,2.6021,2.5983,2.5978,2.5934,2.5905,2.5892,2.584,2.5828,2.5817,2.575,2.5738,2.5708,2.5665,2.5662,2.5658,2.5638,2.5669,2.5649,2.5655,2.5654,2.5652,2.5661,2.5669,2.5568,2.5568,2.5567,0,0,2.6077,2.6046,2.6048,2.6021,2.5978,2.5942,2.5942,2.5889,2.5867,2.5854,2.5804,2.579,2.5752,2.5725,2.5705,2.5752,2.5715,2.5746,2.5789,2.5791,2.5798,2.5804,2.5821,2.5828,2.5748,2.5748,2.5748,0,2.6124,2.6104,2.6053,2.6044,2.6027,2.5968,2.5968,2.5944,2.5895,2.5884,2.5862,2.5815,2.5782,2.5772,2.5784,2.577,2.5768,2.5752,2.5801,2.5807,2.5812,2.5828,2.5834,2.5752,2.5752,2.5752,2.5751,0,2.6164,2.6151,2.6157,2.6114,2.6097,2.6093,2.6041,2.6029,2.5996,2.5962,2.5949,2.5908,2.5875,2.587,2.5837,2.5855,2.5844,2.5813,2.5774,2.5825,2.5839,2.5845,2.5758,2.5757,2.5756,2.5755,0,0,2.6265,2.6195,2.6198,2.6178,2.6128,2.6115,2.6109,2.6078,2.607,2.6038,2.6031,2.6002,2.5973,2.5951,2.5914,2.5916,2.5956,2.5884,2.5882,2.5899,2.5975,2.6,2.6007,2.5931,2.5932,2.5933,2.5979,0,2.6313,2.63,2.6254,2.6254,2.624,2.6185,2.6179,2.6147,2.6115,2.6098,2.6061,2.6042,2.6005,2.5992,2.599,2.5952,2.5971,2.5948,2.5923,2.5923,2.5937,2.6014,2.604,2.6086,2.5984,2.5985,2.5985,0,2.6367,2.6342,2.6341,2.6292,2.6284,2.628,2.6249,2.6234,2.6196,2.6173,2.615,2.6109,2.6098,2.6063,2.6047,2.6033,2.602,2.5999,2.6,2.5996,2.5958,2.6014,2.6099,2.6106,2.5993,2.5992,2.5992,0,2.6442,2.6407,2.6402,2.6387,2.6329,2.6328,2.6303,2.6264,2.6249,2.6221,2.6211,2.6182,2.6166,2.6144,2.6096,2.6075,2.6086,2.6046,2.6066,2.6068,2.6071,2.6072,2.6157,2.6062,2.6062,2.6062,2.6062,0,2.6501,2.6503,2.6435,2.6433,2.6433,2.638,2.6381,2.6351,2.6317,2.6307,2.6256,2.6247,2.6185,2.6169,2.6131,2.6124,2.6117,2.6098,2.6088,2.6103,2.6105,2.6094,2.609,2.6064,2.6064,2.6063,2.6063,0,2.6585,2.654,2.6531,2.6478,2.6465,2.6467,2.6421,2.6416,2.6381,2.6369,2.6363,2.6308,2.6286,2.6237,2.6201,2.6176,2.6179,2.616,2.6192,2.6186,2.621,2.6209,2.629,2.6299,2.6199,2.62,2.6201,0,2.6626,2.6626,2.6574,2.6564,2.6543,2.6527,2.6512,2.646,2.6446,2.6404,2.6404,2.6378,2.6355,2.6324,2.628,2.6253,2.6233,2.6264,2.6229,2.6244,2.6235,2.6236,2.6236,2.6272,2.6273,2.6275,2.6275,0,2.6704,2.6682,2.6663,2.6636,2.662,2.6596,2.6569,2.6564,2.6505,2.6492,2.647,2.6453,2.6418,2.6393,2.636,2.6333,2.6295,2.6287,2.629,2.6306,2.6325,2.6316,2.6215,2.6285,2.6284,2.6284,2.6283,2.6283,2.6767,2.6766,2.6729,2.671,2.6684,2.6661,2.6654,2.6619,2.66,2.6569,2.6539,2.652,2.6483,2.6434,2.641,2.6395,2.6375,2.6379,2.6381,2.6383,2.639,2.6327,2.6388,2.6388,2.6387,2.6387,2.6387,0,2.6843,2.6817,2.68,2.6765,2.675,2.6717,2.6685,2.6675,2.666,2.6629,2.6608,2.6583,2.656,2.6515,2.6487,2.6483,2.6465,2.6477,2.6477,2.6472,2.6409,2.6409,2.6493,2.6493,2.6493,2.6493,2.6493,2.6493,2.6881,2.6877,2.6851,2.6833,2.6806,2.6789,2.6775,2.6753,2.6728,2.6703,2.6684,2.6655,2.6618,2.6588,2.6565,2.6552,2.6544,2.6563,2.6545,2.6486,2.6476,2.6467,2.6467,2.6562,2.6562,2.661,2.661,2.661]}]]